Content
SEND FEEDBACK

Daily
Averages
Monthly
Summary
United States of America

BIG WATER, UTAH


Home > North America > United States > Utah
Elevation: 4166 feet     Latitude: 37 05N     Longitude: 111 40W

WEATHER
 
SELECT A DAY
Number of Records: 197,104;   Date Range: 1/1/95 - 10/16/14
 
SHARE

PRINT THIS DATA

[ ← Previous Day ]
WEATHER ALMANAC - JULY 16, 2013
[ Next Day → ]
[ °C ]   °F
Weather ElementAverageHighLow
Temperature81.3 °F91.9 °F (3:53 pm)72 °F (3:53 am)
Dewpoint57.7 °F64 °F (2:53 am)53.1 °F (4:53 pm)
Humidity46.8 %73 % (2:53 am)27 % (3:53 pm)
Barometer29.89 in30.04 in (6:02 pm)29.81 in (4:53 pm)
Wind Speed3.3 mph11.5 mph (6:17 pm)
Wind Gust23 mph (6:17 pm)
Weather ElementAverage
Visibility10 mi
Wind DirectionENE (72.4 °)

Weather ElementTotal
Precipitation---
Cooling Degree Days17 (Base 65)
Growing Degree Days32 (Base 50)
Averaged from 25 records on July 16, 2013
WEATHER CONDITIONS BREAKOUT
WIND DIRECTION BREAKOUT
WEATHER BY HOUR - JULY 16, 2013
[ °C ]   °F
Local TimeTemperatureDewpointHumidityBarometerVisibilityWind DirectionWind SpeedGust SpeedPrecipitationEventsConditions
1:53 AM73.9 °F61.0 °F64 %29.84 in10.0 miCalmClear
2:53 AM73.0 °F64.0 °F73 %29.85 in10.0 miCalmClear
3:53 AM72.0 °F63.0 °F73 %29.84 in10.0 miSSE (150°)5.8 mphClear
4:53 AM72.0 °F63.0 °F73 %29.86 in10.0 miCalmMostly Cloudy
5:53 AM73.0 °F62.1 °F68 %29.88 in10.0 miCalmClear
6:53 AM73.0 °F63.0 °F71 %29.90 in10.0 miCalmClear
7:53 AM75.9 °F61.0 °F60 %29.92 in10.0 miCalmPartly Cloudy
8:53 AM77.0 °F61.0 °F58 %29.93 in10.0 miCalmScattered Clouds
9:53 AM80.1 °F61.0 °F52 %29.94 in10.0 miCalmMostly Cloudy
10:53 AM81.0 °F55.9 °F42 %29.94 in10.0 miCalmPartly Cloudy
11:53 AM84.9 °F55.9 °F37 %29.91 in10.0 miEast (100°)6.9 mphMostly Cloudy
12:53 PM88.0 °F55.9 °F34 %29.88 in10.0 miSE (140°)6.9 mphScattered Clouds
1:53 PM88.0 °F55.0 °F32 %29.86 in10.0 miVariable4.6 mphPartly Cloudy
2:53 PM90.0 °F55.0 °F30 %29.83 in10.0 miSE (130°)5.8 mphPartly Cloudy
3:53 PM91.9 °F54.0 °F27 %29.82 in10.0 miWSW (250°)6.9 mphClear
4:53 PM90.0 °F53.1 °F28 %29.81 in10.0 miVariable3.5 mphClear
5:53 PM88.0 °F55.0 °F32 %29.82 in10.0 miVariable6.9 mphMostly Cloudy
6:02 PM87.8 °F55.4 °F33 %30.04 in10.0 miWest (260°)10.4 mph19.6 mphThunderstormMostly Cloudy
6:17 PM84.2 °F55.4 °F37 %30.04 in10.0 miWest (260°)11.5 mph23.0 mph0.00 inRainLight Rain
6:53 PM84.0 °F55.0 °F37 %29.86 in10.0 miVariable6.9 mph0.00 inClear
7:53 PM82.9 °F55.0 °F38 %29.86 in10.0 miWest (260°)3.5 mphClear
8:53 PM82.9 °F55.0 °F38 %29.88 in10.0 miWest (260°)3.5 mphClear
9:53 PM81.0 °F55.0 °F41 %29.90 in10.0 miCalmClear
10:53 PM79.0 °F55.9 °F45 %29.91 in10.0 miCalmClear
11:53 PM78.1 °F57.0 °F48 %29.91 in10.0 miCalmClear
Hourly data recorded from KPGA, located miles away from Big Water, Utah







STORIES FROM OUR PARTNERS